Location: Molveno
(46.1500°N, 10.9667°E)
Time: 01:38:50
(UTC+00:00)

Meteor 2-3 Rocket - Pass Details

Date: 05 July 2020
Orbit: 843 x 884 km, 81.2° (Epoch: 11 August)

Event Time Altitude Azimuth Distance (km) Brightness Sun altitude
Exits shadow 23:21:02 42° 199° (SSW) 1,210 4.0 -21.2°
Maximum altitude 23:23:04 81° 281° (W) 875 3.7 -21.2°
Drops below altitude 10° 23:28:48 10° 9° (N) 2,520 7.3 -21.2°
Sets 23:31:16 0° 11° (N) 3,468 8.4 -21.1°
